Weather in Vorota

Russia / Republic of Khakassia     54°42′17″N   90°31′03″E
temp.,
°C
wind,
m/s
gust,
m/s
humid.,
%
clouds,
%
prec.,
mm/h
press.,
hPa
HPBL,
m
21 january, thu
thu2101:00−30sse11992 0.0 103019
04:00−29se129642 0.0 102819
07:00−25se229571 0.0 102665
10:00−23se2497100 0.0 1023150
13:00−19se3496100 0.4 1021194
16:00−20se2398100 0.1 101876
19:00−21se23100100 0.1 101824
22:00−21sse2210098 0.0 101720
22 january, fri
fri2201:00−20se2210099 0.0 101520
04:00−17se2297100 0.0 101178
07:00−14se2296100 0.5 100888
10:00−13se1195100 1.4 100667
13:00−11s2294100 1.8 1005144
16:00−10nw1196100 0.1 100728
19:00−12ne0095100 0.1 101021
22:00−12n2296100 0.1 101320
23 january, sat
sat2301:00−14nne2296100 0.1 101625
04:00−16ne2297100 0.1 102033
07:00−17ene1197100 0.4 102521
10:00−19ssw1196100 0.1 102920
13:00−16wsw387998 0.1 1030452
16:00−15wsw2781100 0.0 1031309
19:00−18sw2279100 0.0 103223
22:00−18ssw2278100 0.0 103320
24 january, sun
sun2401:00−19sw1278100 0.0 103420
04:00−20s1279100 0.0 103420
07:00−20s2280100 0.0 103520
10:00−19s2384100 0.0 103529
13:00−16sse3784100 0.0 1034302
16:00−17sse3388100 0.0 103463
19:00−16sw41280100 0.0 1035408
22:00−19w51177100 0.0 1037258
25 january, mon
mon2501:00−26n229998 0.0 103919
04:00−29nne12100100 0.0 104219
07:00−32nne0110094 0.0 104419
10:00−32nw1110088 0.0 104619
13:00−28nw019174 0.0 1045104
16:00−30e11936 0.0 104519
19:00−35ese11983 0.0 104619
22:00−35sse11980 0.0 104619